Regional Weather Roundup
Issued by NWS

Home | Current Version | Previous Version | Text Only | Print | Product List | Glossary Off
Versions: 1 2 3 4 5 6 7 8 9 10 11 12 13 14 15 16 17 18 19 20 21 22 23 24 25 26 27

000
ASUS45 KBOU 191607
RWRCO

WEATHER ROUNDUP FOR COLORADO
NATIONAL WEATHER SERVICE DENVER/BOULDER CO
1000 AM MDT THU OCT 19 2017

NOTE: "FAIR" INDICATES FEW OR NO CLOUDS BELOW 12000 FEET WITH NO
SIGNIFICANT WEATHER AND/OR OBSTRUCTIONS TO VISIBILITY.

COZ001>005-013-030-031-191700-
...NORTHWEST COLORADO...

CITY           SKY/WX    TMP DP  RH WIND       PRES   REMARKS
CRAIG          FAIR      42  23  46 CALM      30.15F
HAYDEN         FAIR      47  18  31 E8        30.17F
MEEKER         FAIR      50  19  29 CALM      30.15F
RABBIT EARS PA FAIR      46  12  25 SE5       30.35S
STEAMBOAT SPGS FAIR      42  19  39 CALM      30.18F
WALDEN         NOT AVBL
$$

COZ006>008-011-191700-
...WEST CENTRAL VALLEYS...

CITY           SKY/WX    TMP DP  RH WIND       PRES   REMARKS
GRAND JUNCTION FAIR      53  19  26 SE8       30.11S
MONTROSE       FAIR      52  23  32 S6        30.17F
EAGLE          FAIR      38  17  42 CALM      30.27F
RIFLE          FAIR      49  20  31 CALM      30.16S
DELTA          FAIR      53  18  24 N5        30.15F
NUCLA          PTSUNNY   50  14  23 CALM      30.20S
$$

COZ017>023-064>068-191700-
...SOUTHWEST COLORADO...

CITY           SKY/WX    TMP DP  RH WIND       PRES   REMARKS
DURANGO        FAIR      52  26  36 NE3       30.20F
CORTEZ         FAIR      59  28  30 CALM      30.16S
PAGOSA SPRINGS FAIR      55  23  28 CALM      30.27S
TELLURIDE      NOT AVBL
WOLF CREEK PAS FAIR      41  14  33 S8        30.51S
$$

COZ009-010-012-014-032>034-037-058>063-191700-
...CENTRAL COLORADO...

CITY           SKY/WX    TMP DP  RH WIND       PRES   REMARKS
ASPEN          FAIR      52  19  27 NW5       30.22F
BUENA VISTA    FAIR      46  15  29 CALM      30.28F
COPPER MTN     FAIR      52   9  17 S10G17    30.45F
BERTHOUD PASS  FAIR      39  30  70 SW7       30.47S
COTTONWOOD PAS FAIR      54   9  16 SE6       30.35S
GUNNISON       FAIR      36  12  37 CALM      30.32F
KREMMLING      FAIR      37  23  56 CALM      30.29F
LEADVILLE      FAIR      44   9  23 CALM      30.34S
MONARCH PASS   FAIR      43   9  24 SW12      30.56S
SALIDA         NOT AVBL
SUNLIGHT       CLOUDY    43  10  26 SW8       30.41S
WILKERSON PASS FAIR      45   1  16 W8        30.45S
$$

COZ069>075-191700-
...SAN LUIS VALLEY/SANGRE DE CRISTO MOUNTAINS...

CITY           SKY/WX    TMP DP  RH WIND       PRES   REMARKS
ALAMOSA        FAIR      48  20  32 N5        30.28S
DEL NORTE      FAIR      49  18  29 W8        30.29F
LA VETA PASS   FAIR      52  19  28 S8        30.49S
SAGUACHE       FAIR      48  16  27 NW9       30.29F
$$

COZ035-036-038>040-191700-
...NORTHERN COLORADO FRONT RANGE...

CITY           SKY/WX    TMP DP  RH WIND       PRES   REMARKS
DENVER INTL AP PTSUNNY   60  23  24 SW9       30.08S
DMNS CITY PARK   N/A     60  22  23 SW6       30.07F
AURORA         PTSUNNY   60  23  24 SW6       30.09F
FRONT RANGE AP PTSUNNY   63  27  25 SW7       30.09F
ERIE MUNI ARPT FAIR      59  24  26 S3        30.12F
BOULDER MUN AP FAIR      55  27  33 CALM      30.07S
CENTENNIAL     PTSUNNY   64  26  23 N3        30.10S
BROOMFIELD     NOT AVBL
FORT COLLINS   FAIR      53  28  38 CALM      30.07F
LONGMONT       FAIR      57  32  37 CALM      30.08F
$$

COZ041-046-047-076>085-087-088-191700-
...PIKES PEAK/PALMER DIVIDE AND SOUTHERN FOOTHILLS...

CITY           SKY/WX    TMP DP  RH WIND       PRES   REMARKS
COLO. SPRINGS  FAIR      62  25  24 SE5       30.15F
A. F. ACADEMY  SUNNY     60  19  20 CALM      30.15F
SCHRIEVER AFB  FAIR      62  24  24 MISG      30.16S
CHEYENNE MTN   NOT AVBL
ELLICOTT       FAIR     N/A N/A N/A MISG      30.14S
FALCON         FAIR      65  17  15 S8        30.19F
FORT CARSON    FAIR      59  24  26 N3        30.13S
LIMON          FAIR      59  34  39 SE10      30.12S
MONUMENT HILL  FAIR      64  19  17 S14       30.18F
CANON CITY     SUNNY     64  19  17 W13       30.11F
WALSENBURG     FAIR      72  23  16 SW3       30.14F
TRINIDAD       FAIR      66  25  21 SW9       30.14F
$$

COZ042>045-048>051-090-091-191700-
...NORTHEAST COLORADO...

CITY           SKY/WX    TMP DP  RH WIND       PRES   REMARKS
GREELEY ARPT   FAIR      46  31  55 CALM      30.08F
AKRON          FAIR      65  31  28 SW8       30.07S
BURLINGTON     FAIR      70  43  37 S13       30.09S
WRAY           FAIR      63  37  39 S6        30.05F
YUMA           NOT AVBL
STERLING       FAIR      54  36  50 SW3       30.04F
HOLYOKE        FAIR      61  37  41 SW7       30.05F
FORT MORGAN    FAIR      51  29  42 W7        30.07S
$$

COZ086-089-092>099-191700-
...SOUTHEAST COLORADO...

CITY           SKY/WX    TMP DP  RH WIND       PRES   REMARKS
PUEBLO         FAIR      54  29  38 CALM      30.10F
LA JUNTA       FAIR      55  32  41 W5        30.10S
LAMAR          FAIR      57  33  40 VRB3      30.08F
SPRINGFIELD      N/A     63  42  46 VRB3      30.09F
$$




USA.gov is the U.S. government's official web portal to all federal, state and local government web resources and services.